ボリソフ彗星

C/2021 L3 ( Borisov )

English version
Home page
Updated on January 17, 2022

---------------------------------------------------------------------

・ プロフィール

発見日 2021年6月8日
発見光度 20.2等
発見者 Gennady Borisov (MARGO observatory near Nauchnij, Crimea)

・ 写真集

・ 軌道要素

Epoch 2022 Jan. 21.0 TT = JDT 2459600.5
T 2022 Feb. 14.00435 TT                                 Rudenko
q   8.4573422            (2000.0)            P               Q
z  -0.0001408      Peri.   91.61431     +0.02412514     -0.96684552
 +/-0.0000050      Node   344.96823     -0.20766541     +0.24390026
e   1.0011905      Incl.   78.57981     +0.97790238     +0.07564654
From 155 observations 2021 June 8-Oct. 26, mean residual 0".5.

・ 光度変化

        m1 = 5.5 + 5 logΔ + 10.0 log r

---------------------------------------------------------------------

軌道要素はM.P.E.C. 2021-W138に掲載されたものです。
光度グラフはComet for Windowsで作成したものです。

---------------------------------------------------------------------

Copyright(C) Seiichi Yoshida (comet@aerith.net). All rights reserved.